Year,Month,Day,Hour,Minute,Value (Times are PST for windspeed in km/hr)
2010,10,29,00,00,0.30
2010,10,29,00,01,0.00
2010,10,29,00,02,0.00
2010,10,29,00,03,0.00
2010,10,29,00,04,0.20
2010,10,29,00,05,1.70
2010,10,29,00,06,1.70
2010,10,29,00,07,1.00
2010,10,29,00,08,0.70
2010,10,29,00,09,0.30
2010,10,29,00,10,0.20
2010,10,29,00,11,0.00
2010,10,29,00,12,0.00
2010,10,29,00,13,0.00
2010,10,29,00,14,0.60
2010,10,29,00,15,1.80
2010,10,29,00,16,1.90
2010,10,29,00,17,1.10
2010,10,29,00,18,0.60
2010,10,29,00,19,0.60
2010,10,29,00,20,0.00
2010,10,29,00,21,0.10
2010,10,29,00,22,0.00
2010,10,29,00,23,0.00
2010,10,29,00,24,0.00
2010,10,29,00,25,0.00
2010,10,29,00,26,0.00
2010,10,29,00,27,0.00
2010,10,29,00,28,0.00
2010,10,29,00,29,0.00
2010,10,29,00,30,0.00
2010,10,29,00,31,0.00
2010,10,29,00,32,0.00
2010,10,29,00,33,0.00
2010,10,29,00,34,0.00
2010,10,29,00,35,0.00
2010,10,29,00,36,0.00
2010,10,29,00,37,0.00
2010,10,29,00,38,0.00
2010,10,29,00,39,0.00
2010,10,29,00,40,0.00
2010,10,29,00,41,0.00
2010,10,29,00,42,0.00
2010,10,29,00,43,0.00
2010,10,29,00,44,0.00
2010,10,29,00,45,0.00
2010,10,29,00,46,0.00
2010,10,29,00,47,0.00
2010,10,29,00,48,0.00
2010,10,29,00,49,0.10
2010,10,29,00,50,0.00
2010,10,29,00,51,0.00
2010,10,29,00,52,0.00
2010,10,29,00,53,0.00
2010,10,29,00,54,0.00
2010,10,29,00,55,0.00
2010,10,29,00,56,0.00
2010,10,29,00,57,0.00
2010,10,29,00,58,0.00
2010,10,29,00,59,0.90
2010,10,29,01,00,2.00
2010,10,29,01,01,1.50
2010,10,29,01,02,0.60
2010,10,29,01,03,1.50
2010,10,29,01,04,2.10
2010,10,29,01,05,1.20
2010,10,29,01,06,2.40
2010,10,29,01,07,3.00
2010,10,29,01,08,2.00
2010,10,29,01,09,3.00
2010,10,29,01,10,3.40
2010,10,29,01,11,2.20
2010,10,29,01,12,2.10
2010,10,29,01,13,1.20
2010,10,29,01,14,1.20
2010,10,29,01,15,0.70
2010,10,29,01,16,0.70
2010,10,29,01,17,2.20
2010,10,29,01,18,1.40
2010,10,29,01,19,0.00
2010,10,29,01,20,1.10
2010,10,29,01,21,2.50
2010,10,29,01,22,2.60
2010,10,29,01,23,3.10
2010,10,29,01,24,3.20
2010,10,29,01,25,3.10
2010,10,29,01,26,3.80
2010,10,29,01,27,3.10
2010,10,29,01,28,2.60
2010,10,29,01,29,2.30
2010,10,29,01,30,1.90
2010,10,29,01,31,1.10
2010,10,29,01,32,2.10
2010,10,29,01,33,0.90
2010,10,29,01,34,1.50
2010,10,29,01,35,2.40
2010,10,29,01,36,2.30
2010,10,29,01,37,1.50
2010,10,29,01,38,0.70
2010,10,29,01,39,0.60
2010,10,29,01,40,2.10
2010,10,29,01,41,1.20
2010,10,29,01,42,2.10
2010,10,29,01,43,1.90
2010,10,29,01,44,1.70
2010,10,29,01,45,0.00
2010,10,29,01,46,0.00
2010,10,29,01,47,0.00
2010,10,29,01,48,0.00
2010,10,29,01,49,0.00
2010,10,29,01,50,0.00
2010,10,29,01,51,0.00
2010,10,29,01,52,0.10
2010,10,29,01,53,0.00
2010,10,29,01,54,0.00
2010,10,29,01,55,0.00
2010,10,29,01,56,0.00
2010,10,29,01,57,0.00
2010,10,29,01,58,0.00
2010,10,29,01,59,0.00
2010,10,29,02,00,0.00
2010,10,29,02,01,0.00
2010,10,29,02,02,0.00
2010,10,29,02,03,0.20
2010,10,29,02,04,0.00
2010,10,29,02,05,0.60
2010,10,29,02,06,0.00
2010,10,29,02,07,0.00
2010,10,29,02,08,0.00
2010,10,29,02,09,0.00
2010,10,29,02,10,0.00
2010,10,29,02,11,0.00
2010,10,29,02,12,0.00
2010,10,29,02,13,0.00
2010,10,29,02,14,0.00
2010,10,29,02,15,0.00
2010,10,29,02,16,0.00
2010,10,29,02,17,0.00
2010,10,29,02,18,0.00
2010,10,29,02,19,0.00
2010,10,29,02,20,0.00
2010,10,29,02,21,0.00
2010,10,29,02,22,0.00
2010,10,29,02,23,0.00
2010,10,29,02,24,0.00
2010,10,29,02,25,0.00
2010,10,29,02,26,0.00
2010,10,29,02,27,0.00
2010,10,29,02,28,0.00
2010,10,29,02,29,0.00
2010,10,29,02,30,0.20
2010,10,29,02,31,0.00
2010,10,29,02,32,0.00
2010,10,29,02,33,0.00
2010,10,29,02,34,0.00
2010,10,29,02,35,0.00
2010,10,29,02,36,0.10
2010,10,29,02,37,0.30
2010,10,29,02,38,1.30
2010,10,29,02,39,0.40
2010,10,29,02,40,0.40
2010,10,29,02,41,0.70
2010,10,29,02,42,0.80
2010,10,29,02,43,0.90
2010,10,29,02,44,0.30
2010,10,29,02,45,0.40
2010,10,29,02,46,0.60
2010,10,29,02,47,0.00
2010,10,29,02,48,0.30
2010,10,29,02,49,0.10
2010,10,29,02,50,0.00
2010,10,29,02,51,0.00
2010,10,29,02,52,0.20
2010,10,29,02,53,0.80
2010,10,29,02,54,1.20
2010,10,29,02,55,1.90
2010,10,29,02,56,0.60
2010,10,29,02,57,0.00
2010,10,29,02,58,0.00
2010,10,29,02,59,0.00
2010,10,29,03,00,0.00
2010,10,29,03,01,0.00
2010,10,29,03,02,0.00
2010,10,29,03,03,0.00
2010,10,29,03,04,0.30
2010,10,29,03,05,0.00
2010,10,29,03,06,0.00
2010,10,29,03,07,0.00
2010,10,29,03,08,0.00
2010,10,29,03,09,0.00
2010,10,29,03,10,0.00
2010,10,29,03,11,0.00
2010,10,29,03,12,0.00
2010,10,29,03,13,0.00
2010,10,29,03,14,0.00
2010,10,29,03,15,0.00
2010,10,29,03,16,0.00
2010,10,29,03,17,0.00
2010,10,29,03,18,0.00
2010,10,29,03,19,0.00
2010,10,29,03,20,0.00
2010,10,29,03,21,0.00
2010,10,29,03,22,0.00
2010,10,29,03,23,0.00
2010,10,29,03,24,0.00
2010,10,29,03,25,0.00
2010,10,29,03,26,0.00
2010,10,29,03,27,0.00
2010,10,29,03,28,0.00
2010,10,29,03,29,0.00
2010,10,29,03,30,0.00
2010,10,29,03,31,0.00
2010,10,29,03,32,0.00
2010,10,29,03,33,0.10
2010,10,29,03,34,2.40
2010,10,29,03,35,1.80
2010,10,29,03,36,2.00
2010,10,29,03,37,1.80
2010,10,29,03,38,2.70
2010,10,29,03,39,2.30
2010,10,29,03,40,1.80
2010,10,29,03,41,0.90
2010,10,29,03,42,0.00
2010,10,29,03,43,0.00
2010,10,29,03,44,0.00
2010,10,29,03,45,0.00
2010,10,29,03,46,0.00
2010,10,29,03,47,0.00
2010,10,29,03,48,1.90
2010,10,29,03,49,1.60
2010,10,29,03,50,1.20
2010,10,29,03,51,0.60
2010,10,29,03,52,0.00
2010,10,29,03,53,0.00
2010,10,29,03,54,0.00
2010,10,29,03,55,0.00
2010,10,29,03,56,0.00
2010,10,29,03,57,0.00
2010,10,29,03,58,0.10
2010,10,29,03,59,0.60
2010,10,29,04,00,1.50
2010,10,29,04,01,0.20
2010,10,29,04,02,0.00
2010,10,29,04,03,0.00
2010,10,29,04,04,0.00
2010,10,29,04,05,0.00
2010,10,29,04,06,0.00
2010,10,29,04,07,0.00
2010,10,29,04,08,0.00
2010,10,29,04,09,0.00
2010,10,29,04,10,0.00
2010,10,29,04,11,0.20
2010,10,29,04,12,0.00
2010,10,29,04,13,0.00
2010,10,29,04,14,0.00
2010,10,29,04,15,0.00
2010,10,29,04,16,0.00
2010,10,29,04,17,0.00
2010,10,29,04,18,0.00
2010,10,29,04,19,0.00
2010,10,29,04,20,0.00
2010,10,29,04,21,0.00
2010,10,29,04,22,0.00
2010,10,29,04,23,0.00
2010,10,29,04,24,0.30
2010,10,29,04,25,2.10
2010,10,29,04,26,1.00
2010,10,29,04,27,0.00
2010,10,29,04,28,0.00
2010,10,29,04,29,0.00
2010,10,29,04,30,0.00
2010,10,29,04,31,0.00
2010,10,29,04,32,0.00
2010,10,29,04,33,0.00
2010,10,29,04,34,0.00
2010,10,29,04,35,0.00
2010,10,29,04,36,0.00
2010,10,29,04,37,0.00
2010,10,29,04,38,0.00
2010,10,29,04,39,0.00
2010,10,29,04,40,0.00
2010,10,29,04,41,0.00
2010,10,29,04,42,0.00
2010,10,29,04,43,0.00
2010,10,29,04,44,0.00
2010,10,29,04,45,0.00
2010,10,29,04,46,0.00
2010,10,29,04,47,0.00
2010,10,29,04,48,0.00
2010,10,29,04,49,0.00
2010,10,29,04,50,0.00
2010,10,29,04,51,0.00
2010,10,29,04,52,0.00
2010,10,29,04,53,0.00
2010,10,29,04,54,0.00
2010,10,29,04,55,0.00
2010,10,29,04,56,0.00
2010,10,29,04,57,0.00
2010,10,29,04,58,0.00
2010,10,29,04,59,0.00
2010,10,29,05,00,0.00
2010,10,29,05,01,0.00
2010,10,29,05,02,0.00
2010,10,29,05,03,0.00
2010,10,29,05,04,0.00
2010,10,29,05,05,0.00
2010,10,29,05,06,0.00
2010,10,29,05,07,0.10
2010,10,29,05,08,1.70
2010,10,29,05,09,0.80
2010,10,29,05,10,2.00
2010,10,29,05,11,1.00
2010,10,29,05,12,0.00
2010,10,29,05,13,0.00
2010,10,29,05,14,0.00
2010,10,29,05,15,0.00
2010,10,29,05,16,0.00
2010,10,29,05,17,0.40
2010,10,29,05,18,0.60
2010,10,29,05,19,0.00
2010,10,29,05,20,0.00
2010,10,29,05,21,0.00
2010,10,29,05,22,0.00
2010,10,29,05,23,0.00
2010,10,29,05,24,0.00
2010,10,29,05,25,0.00
2010,10,29,05,26,0.00
2010,10,29,05,27,0.00
2010,10,29,05,28,0.30
2010,10,29,05,29,0.60
2010,10,29,05,30,1.20
2010,10,29,05,31,0.40
2010,10,29,05,32,0.40
2010,10,29,05,33,0.00
2010,10,29,05,34,0.20
2010,10,29,05,35,0.00
2010,10,29,05,36,0.00
2010,10,29,05,37,0.00
2010,10,29,05,38,0.00
2010,10,29,05,39,0.00
2010,10,29,05,40,0.00
2010,10,29,05,41,0.00
2010,10,29,05,42,0.00
2010,10,29,05,43,0.00
2010,10,29,05,44,0.00
2010,10,29,05,45,0.00
2010,10,29,05,46,0.00
2010,10,29,05,47,0.00
2010,10,29,05,48,0.00
2010,10,29,05,49,0.00
2010,10,29,05,50,0.00
2010,10,29,05,51,0.00
2010,10,29,05,52,0.00
2010,10,29,05,53,0.00
2010,10,29,05,54,1.50
2010,10,29,05,55,2.50
2010,10,29,05,56,2.90
2010,10,29,05,57,2.70
2010,10,29,05,58,3.30
2010,10,29,05,59,1.00
2010,10,29,06,00,0.30
2010,10,29,06,01,0.00
2010,10,29,06,02,0.00
2010,10,29,06,03,0.00
2010,10,29,06,04,0.00
2010,10,29,06,05,0.00
2010,10,29,06,06,0.00
2010,10,29,06,07,0.00
2010,10,29,06,08,0.00
2010,10,29,06,09,0.00
2010,10,29,06,10,0.00
2010,10,29,06,11,0.00
2010,10,29,06,12,0.00
2010,10,29,06,13,0.00
2010,10,29,06,14,0.20
2010,10,29,06,15,0.40
2010,10,29,06,16,1.20
2010,10,29,06,17,1.30
2010,10,29,06,18,1.60
2010,10,29,06,19,1.70
2010,10,29,06,20,0.10
2010,10,29,06,21,0.00
2010,10,29,06,22,0.60
2010,10,29,06,23,0.80
2010,10,29,06,24,0.50
2010,10,29,06,25,0.20
2010,10,29,06,26,0.00
2010,10,29,06,27,0.00
2010,10,29,06,28,0.00
2010,10,29,06,29,0.00
2010,10,29,06,30,0.90
2010,10,29,06,31,1.60
2010,10,29,06,32,2.30
2010,10,29,06,33,2.00
2010,10,29,06,34,1.90
2010,10,29,06,35,0.80
2010,10,29,06,36,2.20
2010,10,29,06,37,2.40
2010,10,29,06,38,1.20
2010,10,29,06,39,0.50
2010,10,29,06,40,0.90
2010,10,29,06,41,0.10
2010,10,29,06,42,0.00
2010,10,29,06,43,0.00
2010,10,29,06,44,0.00
2010,10,29,06,45,0.00
2010,10,29,06,46,0.00
2010,10,29,06,47,0.00
2010,10,29,06,48,0.00
2010,10,29,06,49,0.00
2010,10,29,06,50,0.00
2010,10,29,06,51,0.00
2010,10,29,06,52,0.00
2010,10,29,06,53,0.00
2010,10,29,06,54,0.00
2010,10,29,06,55,0.00
2010,10,29,06,56,0.00
2010,10,29,06,57,0.00
2010,10,29,06,58,0.00
2010,10,29,06,59,0.00
2010,10,29,07,00,0.00
2010,10,29,07,01,0.00
2010,10,29,07,02,0.00
2010,10,29,07,03,0.00
2010,10,29,07,04,0.30
2010,10,29,07,05,0.20
2010,10,29,07,06,0.90
2010,10,29,07,07,0.60
2010,10,29,07,08,0.60
2010,10,29,07,09,0.00
2010,10,29,07,10,0.50
2010,10,29,07,11,1.80
2010,10,29,07,12,1.00
2010,10,29,07,13,1.00
2010,10,29,07,14,2.00
2010,10,29,07,15,2.50
2010,10,29,07,16,1.80
2010,10,29,07,17,2.70
2010,10,29,07,18,3.40
2010,10,29,07,19,1.10
2010,10,29,07,20,0.00
2010,10,29,07,21,0.00
2010,10,29,07,22,0.00
2010,10,29,07,23,0.20
2010,10,29,07,24,1.00
2010,10,29,07,25,1.50
2010,10,29,07,26,0.60
2010,10,29,07,27,0.10
2010,10,29,07,28,0.00
2010,10,29,07,29,0.00
2010,10,29,07,30,0.00
2010,10,29,07,31,0.00
2010,10,29,07,32,0.00
2010,10,29,07,33,0.30
2010,10,29,07,34,0.80
2010,10,29,07,35,2.60
2010,10,29,07,36,3.50
2010,10,29,07,37,4.90
2010,10,29,07,38,4.30
2010,10,29,07,39,2.80
2010,10,29,07,40,1.40
2010,10,29,07,41,1.40
2010,10,29,07,42,2.30
2010,10,29,07,43,2.50
2010,10,29,07,44,2.30
2010,10,29,07,45,2.90
2010,10,29,07,46,2.30
2010,10,29,07,47,2.50
2010,10,29,07,48,1.90
2010,10,29,07,49,0.90
2010,10,29,07,50,0.40
2010,10,29,07,51,0.60
2010,10,29,07,52,0.00
2010,10,29,07,53,0.00
2010,10,29,07,54,0.00
2010,10,29,07,55,0.10
2010,10,29,07,56,0.00
2010,10,29,07,57,0.00
2010,10,29,07,58,0.20
2010,10,29,07,59,0.10
2010,10,29,08,00,0.00
2010,10,29,08,01,0.00
2010,10,29,08,02,0.00
2010,10,29,08,03,0.00
2010,10,29,08,04,0.00
2010,10,29,08,05,0.10
2010,10,29,08,06,0.70
2010,10,29,08,07,0.10
2010,10,29,08,08,0.00
2010,10,29,08,09,0.00
2010,10,29,08,10,0.00
2010,10,29,08,11,0.00
2010,10,29,08,12,0.00
2010,10,29,08,13,0.00
2010,10,29,08,14,0.00
2010,10,29,08,15,0.00
2010,10,29,08,16,0.00
2010,10,29,08,17,0.30
2010,10,29,08,18,0.00
2010,10,29,08,19,0.00
2010,10,29,08,20,0.00
2010,10,29,08,21,0.00
2010,10,29,08,22,0.00
2010,10,29,08,23,0.00
2010,10,29,08,24,0.00
2010,10,29,08,25,0.00
2010,10,29,08,26,0.00
2010,10,29,08,27,0.00
2010,10,29,08,28,0.00
2010,10,29,08,29,0.00
2010,10,29,08,30,0.00
2010,10,29,08,31,0.00
2010,10,29,08,32,0.00
2010,10,29,08,33,0.00
2010,10,29,08,34,0.00
2010,10,29,08,35,0.00
2010,10,29,08,36,1.70
2010,10,29,08,37,4.40
2010,10,29,08,38,5.20
2010,10,29,08,39,5.10
2010,10,29,08,40,5.40
2010,10,29,08,41,4.70
2010,10,29,08,42,3.90
2010,10,29,08,43,6.60
2010,10,29,08,44,4.60
2010,10,29,08,45,5.10
2010,10,29,08,46,3.90
2010,10,29,08,47,3.10
2010,10,29,08,48,2.30
2010,10,29,08,49,0.90
2010,10,29,08,50,0.00
2010,10,29,08,51,0.00
2010,10,29,08,52,0.00
2010,10,29,08,53,0.30
2010,10,29,08,54,0.00
2010,10,29,08,55,0.00
2010,10,29,08,56,0.10
2010,10,29,08,57,0.30
2010,10,29,08,58,1.90
2010,10,29,08,59,2.10
2010,10,29,09,00,3.80
2010,10,29,09,01,3.40
2010,10,29,09,02,4.10
2010,10,29,09,03,3.90
2010,10,29,09,04,4.80
2010,10,29,09,05,3.70
2010,10,29,09,06,1.70
2010,10,29,09,07,2.70
2010,10,29,09,08,2.90
2010,10,29,09,09,2.20
2010,10,29,09,10,0.60
2010,10,29,09,11,0.60
2010,10,29,09,12,0.90
2010,10,29,09,13,0.10
2010,10,29,09,14,0.00
2010,10,29,09,15,0.00
2010,10,29,09,16,0.00
2010,10,29,09,17,0.00
2010,10,29,09,18,0.00
2010,10,29,09,19,0.00
2010,10,29,09,20,0.00
2010,10,29,09,21,0.00
2010,10,29,09,22,0.00
2010,10,29,09,23,0.00
2010,10,29,09,24,0.60
2010,10,29,09,25,0.60
2010,10,29,09,26,2.20
2010,10,29,09,27,2.30
2010,10,29,09,28,1.60
2010,10,29,09,29,1.80
2010,10,29,09,30,1.50
2010,10,29,09,31,0.10
2010,10,29,09,32,0.00
2010,10,29,09,33,0.00
2010,10,29,09,34,0.00
2010,10,29,09,35,0.00
2010,10,29,09,36,0.00
2010,10,29,09,37,0.00
2010,10,29,09,38,0.00
2010,10,29,09,39,0.00
2010,10,29,09,40,0.00
2010,10,29,09,41,0.20
2010,10,29,09,42,0.50
2010,10,29,09,43,0.00
2010,10,29,09,44,0.30
2010,10,29,09,45,0.20
2010,10,29,09,46,0.10
2010,10,29,09,47,2.20
2010,10,29,09,48,1.00
2010,10,29,09,49,0.10
2010,10,29,09,50,0.90
2010,10,29,09,51,1.30
2010,10,29,09,52,0.60
2010,10,29,09,53,0.00
2010,10,29,09,54,0.00
2010,10,29,09,55,0.00
2010,10,29,09,56,0.00
2010,10,29,09,57,0.10
2010,10,29,09,58,2.70
2010,10,29,09,59,3.00
2010,10,29,10,00,3.40
2010,10,29,10,01,3.70
2010,10,29,10,02,1.90
2010,10,29,10,03,0.00
2010,10,29,10,04,0.30
2010,10,29,10,05,0.50
2010,10,29,10,06,0.70
2010,10,29,10,07,1.90
2010,10,29,10,08,4.50
2010,10,29,10,09,5.60
2010,10,29,10,10,5.60
2010,10,29,10,11,2.80
2010,10,29,10,12,4.80
2010,10,29,10,13,3.80
2010,10,29,10,14,2.30
2010,10,29,10,15,1.10
2010,10,29,10,16,0.10
2010,10,29,10,17,3.40
2010,10,29,10,18,2.70
2010,10,29,10,19,1.50
2010,10,29,10,20,0.80
2010,10,29,10,21,4.30
2010,10,29,10,22,2.60
2010,10,29,10,23,4.00
2010,10,29,10,24,4.70
2010,10,29,10,25,4.70
2010,10,29,10,26,4.00
2010,10,29,10,27,5.00
2010,10,29,10,28,4.20
2010,10,29,10,29,3.80
2010,10,29,10,30,3.40
2010,10,29,10,31,3.50
2010,10,29,10,32,0.30
2010,10,29,10,33,0.00
2010,10,29,10,34,1.00
2010,10,29,10,35,2.80
2010,10,29,10,36,2.90
2010,10,29,10,37,0.10
2010,10,29,10,38,0.10
2010,10,29,10,39,0.20
2010,10,29,10,40,0.10
2010,10,29,10,41,2.70
2010,10,29,10,42,1.20
2010,10,29,10,43,3.80
2010,10,29,10,44,3.90
2010,10,29,10,45,2.50
2010,10,29,10,46,2.20
2010,10,29,10,47,2.20
2010,10,29,10,48,2.50
2010,10,29,10,49,1.60
2010,10,29,10,50,3.30
2010,10,29,10,51,2.70
2010,10,29,10,52,2.70
2010,10,29,10,53,6.40
2010,10,29,10,54,4.80
2010,10,29,10,55,2.70
2010,10,29,10,56,2.30
2010,10,29,10,57,2.30
2010,10,29,10,58,2.80
2010,10,29,10,59,0.30
2010,10,29,11,00,0.00
2010,10,29,11,01,1.80
2010,10,29,11,02,3.90
2010,10,29,11,03,4.90
2010,10,29,11,04,6.00
2010,10,29,11,05,4.20
2010,10,29,11,06,2.70
2010,10,29,11,07,4.10
2010,10,29,11,08,4.60
2010,10,29,11,09,4.60
2010,10,29,11,10,3.30
2010,10,29,11,11,2.90
2010,10,29,11,12,2.40
2010,10,29,11,13,0.70
2010,10,29,11,14,4.30
2010,10,29,11,15,5.80
2010,10,29,11,16,2.70
2010,10,29,11,17,3.50
2010,10,29,11,18,3.70
2010,10,29,11,19,3.00
2010,10,29,11,20,1.30
2010,10,29,11,21,0.20
2010,10,29,11,22,2.70
2010,10,29,11,23,2.90
2010,10,29,11,24,1.60
2010,10,29,11,25,1.00
2010,10,29,11,26,0.90
2010,10,29,11,27,0.20
2010,10,29,11,28,1.70
2010,10,29,11,29,0.00
2010,10,29,11,30,0.00
2010,10,29,11,31,0.20
2010,10,29,11,32,1.10
2010,10,29,11,33,1.10
2010,10,29,11,34,0.00
2010,10,29,11,35,0.40
2010,10,29,11,36,1.30
2010,10,29,11,37,1.20
2010,10,29,11,38,0.20
2010,10,29,11,39,0.10
2010,10,29,11,40,0.40
2010,10,29,11,41,1.10
2010,10,29,11,42,0.10
2010,10,29,11,43,0.40
2010,10,29,11,44,0.70
2010,10,29,11,45,2.20
2010,10,29,11,46,5.00
2010,10,29,11,47,6.10
2010,10,29,11,48,5.20
2010,10,29,11,49,7.00
2010,10,29,11,50,5.40
2010,10,29,11,51,6.70
2010,10,29,11,52,4.40
2010,10,29,11,53,6.00
2010,10,29,11,54,5.90
2010,10,29,11,55,5.50
2010,10,29,11,56,4.30
2010,10,29,11,57,6.00
2010,10,29,11,58,2.00
2010,10,29,11,59,0.50
2010,10,29,12,00,0.60
2010,10,29,12,01,3.80
2010,10,29,12,02,2.20
2010,10,29,12,03,3.80
2010,10,29,12,04,6.50
2010,10,29,12,05,6.40
2010,10,29,12,06,7.00
2010,10,29,12,07,3.60
2010,10,29,12,08,4.30
2010,10,29,12,09,9.70
2010,10,29,12,10,4.80
2010,10,29,12,11,1.10
2010,10,29,12,12,1.20
2010,10,29,12,13,4.40
2010,10,29,12,14,0.70
2010,10,29,12,15,0.30
2010,10,29,12,16,2.20
2010,10,29,12,17,0.00
2010,10,29,12,18,1.40
2010,10,29,12,19,5.10
2010,10,29,12,20,4.70
2010,10,29,12,21,6.70
2010,10,29,12,22,7.40
2010,10,29,12,23,3.10
2010,10,29,12,24,5.00
2010,10,29,12,25,8.30
2010,10,29,12,26,6.00
2010,10,29,12,27,5.20
2010,10,29,12,28,6.60
2010,10,29,12,29,8.60
2010,10,29,12,30,7.50
2010,10,29,12,31,7.70
2010,10,29,12,32,5.90
2010,10,29,12,33,6.20
2010,10,29,12,34,8.30
2010,10,29,12,35,7.10
2010,10,29,12,36,6.80
2010,10,29,12,37,9.40
2010,10,29,12,38,5.30
2010,10,29,12,39,3.50
2010,10,29,12,40,7.20
2010,10,29,12,41,5.50
2010,10,29,12,42,6.10
2010,10,29,12,43,10.60
2010,10,29,12,44,9.20
2010,10,29,12,45,10.40
2010,10,29,12,46,6.30
2010,10,29,12,47,6.90
2010,10,29,12,48,9.30
2010,10,29,12,49,11.20
2010,10,29,12,50,8.70
2010,10,29,12,51,7.50
2010,10,29,12,52,8.20
2010,10,29,12,53,7.80
2010,10,29,12,54,7.70
2010,10,29,12,55,3.50
2010,10,29,12,56,2.00
2010,10,29,12,57,5.60
2010,10,29,12,58,6.20
2010,10,29,12,59,7.30
2010,10,29,13,00,5.10
2010,10,29,13,01,3.30
2010,10,29,13,02,5.30
2010,10,29,13,03,4.70
2010,10,29,13,04,6.90
2010,10,29,13,05,5.10
2010,10,29,13,06,6.60
2010,10,29,13,07,6.60
2010,10,29,13,08,5.90
2010,10,29,13,09,9.80
2010,10,29,13,10,7.50
2010,10,29,13,11,6.20
2010,10,29,13,12,9.30
2010,10,29,13,13,6.90
2010,10,29,13,14,5.30
2010,10,29,13,15,2.40
2010,10,29,13,16,6.00
2010,10,29,13,17,9.30
2010,10,29,13,18,5.60
2010,10,29,13,19,6.00
2010,10,29,13,20,5.70
2010,10,29,13,21,8.90
2010,10,29,13,22,12.60
2010,10,29,13,23,10.20
2010,10,29,13,24,13.10
2010,10,29,13,25,17.40
2010,10,29,13,26,10.30
2010,10,29,13,27,11.20
2010,10,29,13,28,11.40
2010,10,29,13,29,14.10
2010,10,29,13,30,9.30
2010,10,29,13,31,7.20
2010,10,29,13,32,9.80
2010,10,29,13,33,10.10
2010,10,29,13,34,6.80
2010,10,29,13,35,13.30
2010,10,29,13,36,13.20
2010,10,29,13,37,12.30
2010,10,29,13,38,10.50
2010,10,29,13,39,12.40
2010,10,29,13,40,10.10
2010,10,29,13,41,10.80
2010,10,29,13,42,12.30
2010,10,29,13,43,12.70
2010,10,29,13,44,10.70
2010,10,29,13,45,8.70
2010,10,29,13,46,8.90
2010,10,29,13,47,9.30
2010,10,29,13,48,9.20
2010,10,29,13,49,7.70
2010,10,29,13,50,6.40
2010,10,29,13,51,9.70
2010,10,29,13,52,9.70
2010,10,29,13,53,10.10
2010,10,29,13,54,10.30
2010,10,29,13,55,6.70
2010,10,29,13,56,7.10
2010,10,29,13,57,10.30
2010,10,29,13,58,11.30
2010,10,29,13,59,14.70
2010,10,29,14,00,12.70
2010,10,29,14,01,7.70
2010,10,29,14,02,10.70
2010,10,29,14,03,13.70
2010,10,29,14,04,10.80
2010,10,29,14,05,13.00
2010,10,29,14,06,9.40
2010,10,29,14,07,8.40
2010,10,29,14,08,8.30
2010,10,29,14,09,9.00
2010,10,29,14,10,10.60
2010,10,29,14,11,8.50
2010,10,29,14,12,14.00
2010,10,29,14,13,14.00
2010,10,29,14,14,9.20
2010,10,29,14,15,7.80
2010,10,29,14,16,13.00
2010,10,29,14,17,6.80
2010,10,29,14,18,8.20
2010,10,29,14,19,9.90
2010,10,29,14,20,15.30
2010,10,29,14,21,9.80
2010,10,29,14,22,8.40
2010,10,29,14,23,6.80
2010,10,29,14,24,7.60
2010,10,29,14,25,8.20
2010,10,29,14,26,6.40
2010,10,29,14,27,8.10
2010,10,29,14,28,8.50
2010,10,29,14,29,5.70
2010,10,29,14,30,10.20
2010,10,29,14,31,9.50
2010,10,29,14,32,8.80
2010,10,29,14,33,5.50
2010,10,29,14,34,7.60
2010,10,29,14,35,5.00
2010,10,29,14,36,8.60
2010,10,29,14,37,9.70
2010,10,29,14,38,7.70
2010,10,29,14,39,8.00
2010,10,29,14,40,9.30
2010,10,29,14,41,7.70
2010,10,29,14,42,3.50
2010,10,29,14,43,1.80
2010,10,29,14,44,4.20
2010,10,29,14,45,9.70
2010,10,29,14,46,8.90
2010,10,29,14,47,12.20
2010,10,29,14,48,9.50
2010,10,29,14,49,8.10
2010,10,29,14,50,7.00
2010,10,29,14,51,7.00
2010,10,29,14,52,6.40
2010,10,29,14,53,9.60
2010,10,29,14,54,8.90
2010,10,29,14,55,4.60
2010,10,29,14,56,6.50
2010,10,29,14,57,6.50
2010,10,29,14,58,8.00
2010,10,29,14,59,4.90
2010,10,29,15,00,4.10
2010,10,29,15,01,2.20
2010,10,29,15,02,6.40
2010,10,29,15,03,7.40
2010,10,29,15,04,6.20
2010,10,29,15,05,7.90
2010,10,29,15,06,7.60
2010,10,29,15,07,10.90
2010,10,29,15,08,10.80
2010,10,29,15,09,8.80
2010,10,29,15,10,7.20
2010,10,29,15,11,5.50
2010,10,29,15,12,11.90
2010,10,29,15,13,6.40
2010,10,29,15,14,10.70
2010,10,29,15,15,8.60
2010,10,29,15,16,7.80
2010,10,29,15,17,7.00
2010,10,29,15,18,5.10
2010,10,29,15,19,6.00
2010,10,29,15,20,4.40
2010,10,29,15,21,5.20
2010,10,29,15,22,3.80
2010,10,29,15,23,1.00
2010,10,29,15,24,5.80
2010,10,29,15,25,5.60
2010,10,29,15,26,4.30
2010,10,29,15,27,3.40
2010,10,29,15,28,7.00
2010,10,29,15,29,5.60
2010,10,29,15,30,3.30
2010,10,29,15,31,5.60
2010,10,29,15,32,6.30
2010,10,29,15,33,4.70
2010,10,29,15,34,6.10
2010,10,29,15,35,7.90
2010,10,29,15,36,6.90
2010,10,29,15,37,7.80
2010,10,29,15,38,8.80
2010,10,29,15,39,7.50
2010,10,29,15,40,10.40
2010,10,29,15,41,7.50
2010,10,29,15,42,4.30
2010,10,29,15,43,7.60
2010,10,29,15,44,5.60
2010,10,29,15,45,6.70
2010,10,29,15,46,9.50
2010,10,29,15,47,9.60
2010,10,29,15,48,7.60
2010,10,29,15,49,6.20
2010,10,29,15,50,6.80
2010,10,29,15,51,4.70
2010,10,29,15,52,11.20
2010,10,29,15,53,7.90
2010,10,29,15,54,11.20
2010,10,29,15,55,11.60
2010,10,29,15,56,8.60
2010,10,29,15,57,7.40
2010,10,29,15,58,7.70
2010,10,29,15,59,5.60
2010,10,29,16,00,6.10
2010,10,29,16,01,1.50
2010,10,29,16,02,10.80
2010,10,29,16,03,7.20
2010,10,29,16,04,6.90
2010,10,29,16,05,8.70
2010,10,29,16,06,4.40
2010,10,29,16,07,5.00
2010,10,29,16,08,4.70
2010,10,29,16,09,4.90
2010,10,29,16,10,7.70
2010,10,29,16,11,7.00
2010,10,29,16,12,4.30
2010,10,29,16,13,4.00
2010,10,29,16,14,2.90
2010,10,29,16,15,4.50
2010,10,29,16,16,3.00
2010,10,29,16,17,5.70
2010,10,29,16,18,4.30
2010,10,29,16,19,5.70
2010,10,29,16,20,5.90
2010,10,29,16,21,6.50
2010,10,29,16,22,6.30
2010,10,29,16,23,5.30
2010,10,29,16,24,6.80
2010,10,29,16,25,5.60
2010,10,29,16,26,5.20
2010,10,29,16,27,6.40
2010,10,29,16,28,5.30
2010,10,29,16,29,5.60
2010,10,29,16,30,6.50
2010,10,29,16,31,5.30
2010,10,29,16,32,6.70
2010,10,29,16,33,4.30
2010,10,29,16,34,3.00
2010,10,29,16,35,3.80
2010,10,29,16,36,5.10
2010,10,29,16,37,2.70
2010,10,29,16,38,2.20
2010,10,29,16,39,0.20
2010,10,29,16,40,0.00
2010,10,29,16,41,0.00
2010,10,29,16,42,1.20
2010,10,29,16,43,4.50
2010,10,29,16,44,7.30
2010,10,29,16,45,2.30
2010,10,29,16,46,0.70
2010,10,29,16,47,2.10
2010,10,29,16,48,1.80
2010,10,29,16,49,4.00
2010,10,29,16,50,2.40
2010,10,29,16,51,2.10
2010,10,29,16,52,4.60
2010,10,29,16,53,4.90
2010,10,29,16,54,5.30
2010,10,29,16,55,5.10
2010,10,29,16,56,5.20
2010,10,29,16,57,4.40
2010,10,29,16,58,3.80
2010,10,29,16,59,2.80
2010,10,29,17,00,0.70
2010,10,29,17,01,0.00
2010,10,29,17,02,0.00
2010,10,29,17,03,0.40
2010,10,29,17,04,0.00
2010,10,29,17,05,0.00
2010,10,29,17,06,0.00
2010,10,29,17,07,2.70
2010,10,29,17,08,3.60
2010,10,29,17,09,2.00
2010,10,29,17,10,0.00
2010,10,29,17,11,1.70
2010,10,29,17,12,6.00
2010,10,29,17,13,2.20
2010,10,29,17,14,3.60
2010,10,29,17,15,2.30
2010,10,29,17,16,0.60
2010,10,29,17,17,0.00
2010,10,29,17,18,0.00
2010,10,29,17,19,0.00
2010,10,29,17,20,0.00
2010,10,29,17,21,0.00
2010,10,29,17,22,0.20
2010,10,29,17,23,0.00
2010,10,29,17,24,0.00
2010,10,29,17,25,0.00
2010,10,29,17,26,0.10
2010,10,29,17,27,0.00
2010,10,29,17,28,0.00
2010,10,29,17,29,0.00
2010,10,29,17,30,0.00
2010,10,29,17,31,0.00
2010,10,29,17,32,0.00
2010,10,29,17,33,0.00
2010,10,29,17,34,0.00
2010,10,29,17,35,0.00
2010,10,29,17,36,0.00
2010,10,29,17,37,0.00
2010,10,29,17,38,0.00
2010,10,29,17,39,0.00
2010,10,29,17,40,0.00
2010,10,29,17,41,0.00
2010,10,29,17,42,0.00
2010,10,29,17,43,0.00
2010,10,29,17,44,0.00
2010,10,29,17,45,0.00
2010,10,29,17,46,0.00
2010,10,29,17,47,0.30
2010,10,29,17,48,0.90
2010,10,29,17,49,0.20
2010,10,29,17,50,0.10
2010,10,29,17,51,0.20
2010,10,29,17,52,0.00
2010,10,29,17,53,0.10
2010,10,29,17,54,0.00
2010,10,29,17,55,0.00
2010,10,29,17,56,0.00
2010,10,29,17,57,0.00
2010,10,29,17,58,0.00
2010,10,29,17,59,0.00
2010,10,29,18,00,0.00
2010,10,29,18,01,0.00
2010,10,29,18,02,0.00
2010,10,29,18,03,0.00
2010,10,29,18,04,0.20